Location: Unspecified
(40.7945°N, 0.0000°E)
Time: 14:32:29
(UTC+00:00)

Tiros 1 - Visible Passes

Search period start: 25 January 2021 00:00
Search period end: 04 February 2021 00:00
Orbit: 630 x 663 km, 48.4° (Epoch: 24 January)

Date Brightness Start Highest point End Pass type
(mag) Time Alt. Az. Time Alt. Az. Time Alt. Az.
25 Jan 7.6 18:19:53 10° W 18:24:26 52° NNW 18:27:22 21° NE visible
25 Jan 9.3 20:03:08 10° WNW 20:05:02 21° NW 20:05:02 21° NW visible
26 Jan 8.1 18:46:24 10° W 18:50:42 37° NNW 18:52:19 28° NNE visible
26 Jan 10.0 20:29:28 10° WNW 20:29:59 13° NW 20:29:59 13° NW visible
27 Jan 8.2 19:12:55 10° WNW 19:17:05 31° N 19:17:15 31° N visible
28 Jan 8.1 17:56:09 10° W 18:00:30 38° NNW 18:04:31 12° NE visible
28 Jan 8.7 19:39:17 10° WNW 19:42:11 28° NNW 19:42:11 28° NNW visible
29 Jan 8.2 18:22:41 10° WNW 18:26:52 32° N 18:29:28 19° NE visible
29 Jan 9.3 20:05:24 10° NW 20:07:07 21° NW 20:07:07 21° NW visible
30 Jan 8.1 18:49:04 10° WNW 18:53:17 33° N 18:54:25 29° NE visible
30 Jan 9.9 20:31:24 10° WNW 20:32:05 14° NW 20:32:05 14° NW visible
31 Jan 7.8 19:15:13 10° NW 19:19:24 40° N 19:19:24 40° N visible
01 Feb 8.1 17:58:51 10° WNW 18:03:04 32° N 18:06:46 12° ENE visible
01 Feb 8.1 19:41:13 10° WNW 19:44:26 42° NW 19:44:26 42° NW visible
02 Feb 7.8 18:25:02 10° NW 18:29:25 39° NNE 18:31:52 22° ENE visible
02 Feb 8.9 20:07:14 10° WNW 20:09:33 29° WNW 20:09:33 29° WNW visible
03 Feb 7.2 18:51:02 10° WNW 18:55:39 60° NNE 18:57:04 40° E visible
03 Feb 9.8 20:33:31 10° WNW 20:34:45 17° W 20:34:45 17° W visible
